FW8733 Weather Reports


time (UTC)temp
F
wind
direction
speed
knots
gust
knots
rain 1hr
in
rain 24hr
in
rain mn
in
humidity
%
barometer
mb
20260507005631 64 246 0.0 0.0 0.00 0.00 0.00 86 1016.6
20260507005127 64 200 0.0 0.0 0.00 0.00 0.00 86 1016.5
20260507004624 64 200 0.0 0.9 0.00 0.00 0.00 86 1016.6
20260507004122 64 229 0.9 0.9 0.00 0.00 0.00 86 1016.4
20260507003618 64 230 0.0 0.9 0.00 0.00 0.00 85 1016.2
20260507003113 64 229 0.0 0.0 0.00 0.00 0.00 85 1015.9
20260507002610 64 217 0.0 0.0 0.00 0.00 0.00 86 1016.1
20260507002105 64 217 0.0 0.0 0.00 0.00 0.00 85 1015.9
20260507001603 64 236 0.0 0.0 0.00 0.00 0.00 85 1015.9
20260507001100 64 217 0.0 0.9 0.00 0.00 0.00 85 1016.2
20260507000556 64 229 0.0 0.0 0.00 0.00 0.00 85 1016.0
20260507000052 64 242 0.0 0.9 0.00 0.00 0.00 86 1016.0
20260506235549 64 243 0.0 0.9 0.00 0.00 0.00 86 1016.2
20260506235044 64 243 0.0 0.9 0.00 0.00 0.00 86 1016.1
20260506234542 64 244 0.9 1.7 0.00 0.00 0.00 85 1015.8
20260506234039 64 209 0.0 0.0 0.00 0.00 0.00 85 1016.1
20260506233536 64 252 0.0 0.0 0.00 0.00 0.00 85 1016.3
20260506233033 64 214 0.0 0.0 0.00 0.00 0.00 85 1016.0
20260506232529 64 214 0.0 0.0 0.00 0.00 0.00 85 1015.6
20260506232024 64 214 0.9 0.9 0.00 0.00 0.00 84 1016.0
20260506231522 64 243 0.0 0.0 0.00 0.00 0.00 85 1015.8
20260506231020 64 244 0.0 0.0 0.00 0.00 0.00 85 1015.8
20260506230516 64 210 0.0 0.9 0.00 0.00 0.00 84 1015.9
20260506230014 64 235 0.0 0.0 0.00 0.00 0.00 85 1015.6
20260506225510 64 209 0.0 0.0 0.00 0.00 0.00 85 1015.6
20260506225007 64 209 0.9 1.7 0.00 0.00 0.00 84 1015.9
20260506224504 64 254 0.9 1.7 0.00 0.00 0.00 84 1015.8
20260506224000 64 223 0.0 0.9 0.00 0.00 0.00 85 1015.9
20260506223456 64 256 0.0 0.0 0.00 0.00 0.00 84 1015.9
20260506222953 64 214 1.7 1.7 0.00 0.00 0.00 85 1015.6
20260506222450 64 213 0.9 0.9 0.00 0.00 0.00 84 1015.8
20260506221946 64 211 0.9 0.9 0.00 0.00 0.00 84 1016.0
20260506221444 64 210 0.0 0.0 0.00 0.00 0.00 84 1015.6
20260506220942 64 239 0.9 0.9 0.00 0.00 0.00 83 1015.8
20260506220437 65 251 0.0 0.0 0.00 0.00 0.00 83 1015.6
20260506215933 65 235 0.0 0.9 0.00 0.00 0.00 83 1015.5
20260506215430 66 232 0.0 0.0 0.00 0.00 0.00 81 1015.8
20260506214926 66 256 0.0 0.9 0.00 0.00 0.00 81 1015.6
20260506214423 66 251 0.0 0.0 0.00 0.00 0.00 81 1015.6
20260506213921 66 205 1.7 1.7 0.00 0.00 0.00 82 1015.5
20260506213418 66 273 0.0 0.9 0.00 0.00 0.00 81 1015.5
20260506212915 66 207 0.0 0.0 0.00 0.00 0.00 82 1015.4
20260506212411 66 262 1.7 1.7 0.00 0.00 0.00 81 1015.5
20260506211906 66 190 0.9 0.9 0.00 0.00 0.00 81 1015.5
20260506211402 67 256 0.0 0.0 0.00 0.00 0.00 81 1015.6
20260506210859 67 260 1.7 1.7 0.00 0.00 0.00 80 1015.5
20260506210356 67 212 0.0 0.0 0.00 0.00 0.00 81 1015.6
20260506205854 67 210 0.0 0.0 0.00 0.00 0.00 81 1015.7
20260506205349 67 237 0.0 0.9 0.00 0.00 0.00 81 1015.6
20260506204846 68 253 2.6 2.6 0.00 0.00 0.00 79 1015.5
20260506204344 68 172 0.9 0.9 0.00 0.00 0.00 80 1015.8
20260506203841 67 263 0.9 0.9 0.00 0.00 0.00 81 1015.7
20260506203338 68 147 0.9 2.6 0.00 0.00 0.00 81 1015.7
20260506202835 67 198 0.9 0.9 0.00 0.00 0.00 83 1016.0
20260506202332 68 215 0.0 0.0 0.00 0.00 0.00 82 1016.1
20260506201828 68 264 1.7 2.6 0.00 0.00 0.00 81 1015.6
20260506201326 69 240 0.9 1.7 0.00 0.00 0.00 81 1015.6
20260506200822 70 190 0.0 0.9 0.00 0.00 0.00 81 1015.7
20260506200319 70 238 0.0 0.0 0.00 0.00 0.00 82 1015.5
20260506195815 70 236 0.0 0.0 0.00 0.00 0.00 82 1015.5
20260506195312 70 251 0.9 1.7 0.00 0.00 0.00 82 1015.3
20260506194809 69 250 0.0 0.0 0.00 0.00 0.00 83 1015.3
20260506194305 70 286 1.7 1.7 0.00 0.00 0.00 82 1015.4
20260506193803 70 234 0.0 0.9 0.00 0.00 0.00 83 1015.4
20260506193300 69 214 0.9 1.7 0.00 0.00 0.00 84 1015.1
20260506192756 69 206 0.9 0.9 0.00 0.00 0.00 85 1015.3
20260506192253 69 227 0.0 0.0 0.00 0.00 0.00 85 1015.4
20260506191750 69 243 0.9 1.7 0.00 0.00 0.00 85 1015.5
20260506191246 70 212 0.0 0.9 0.00 0.00 0.00 85 1015.1
20260506190743 70 217 0.0 0.9 0.00 0.00 0.00 85 1015.2
20260506190240 71 186 1.7 1.7 0.00 0.00 0.00 85 1015.3
20260506185737 73 59 0.0 0.0 0.00 0.00 0.00 84 1015.2
20260506185233 75 210 0.9 1.7 0.00 0.00 0.00 82 1015.2
20260506184731 78 187 1.7 1.7 0.00 0.00 0.00 78 1015.0
20260506184228 79 204 0.0 0.0 0.00 0.00 0.00 76 1015.0
20260506183725 79 224 0.9 1.7 0.00 0.00 0.00 75 1015.2
20260506183220 79 201 0.9 0.9 0.00 0.00 0.00 72 1014.9
20260506182718 80 201 0.0 0.0 0.00 0.00 0.00 73 1014.9
20260506182215 81 203 0.9 0.9 0.00 0.00 0.00 72 1014.9
20260506181713 79 173 0.0 0.0 0.00 0.00 0.00 75 1014.7
20260506181210 80 211 1.7 1.7 0.00 0.00 0.00 71 1014.9
20260506180707 80 211 0.0 0.0 0.00 0.00 0.00 71 1014.8
20260506180203 80 244 0.0 0.9 0.00 0.00 0.00 70 1014.9
20260506175659 78 181 0.0 0.9 0.00 0.00 0.00 73 1015.0
20260506175156 78 204 0.9 0.9 0.00 0.00 0.00 73 1014.9
20260506174654 78 171 0.9 1.7 0.00 0.00 0.00 73 1014.8
20260506174151 78 254 0.9 0.9 0.00 0.00 0.00 72 1014.6
20260506173649 77 217 0.0 0.9 0.00 0.00 0.00 76 1014.5
20260506173145 76 216 0.0 0.9 0.00 0.00 0.00 76 1014.4
20260506172642 74 189 0.9 1.7 0.00 0.00 0.00 78 1014.5
20260506172139 74 210 0.9 0.9 0.00 0.00 0.00 80 1014.8
20260506171636 74 222 0.0 0.0 0.00 0.00 0.00 79 1014.9
20260506171134 74 211 1.7 2.6 0.00 0.00 0.00 76 1015.0
20260506170626 73 208 0.9 1.7 0.00 0.00 0.00 81 1014.8
20260506170122 72 209 0.9 0.9 0.00 0.00 0.00 79 1014.9
20260506165621 71 259 0.0 0.9 0.00 0.00 0.00 82 1015.2
20260506165111 71 236 1.7 4.3 0.00 0.00 0.00 80 1015.2
20260506164609 71 215 1.7 2.6 0.00 0.00 0.00 79 1015.2
20260506164106 70 206 0.9 0.9 0.00 0.00 0.00 84 1015.0
20260506163601 68 197 4.3 5.2 0.00 0.00 0.00 85 1015.2
20260506163057 68 223 0.0 0.0 0.00 0.00 0.00 87 1015.4
20260506162554 66 215 0.0 0.0 0.00 0.00 0.00 89 1015.5
20260506162051 65 215 0.0 0.0 0.00 0.00 0.00 93 1015.8
20260506161549 64 215 0.0 0.0 0.00 0.00 0.00 92 1015.9
20260506161045 64 218 0.0 0.0 0.00 0.00 0.00 92 1016.8
20260506160543 64 254 0.0 0.9 0.00 0.00 0.00 91 1017.2
20260506160040 65 244 1.7 2.6 0.00 0.00 0.00 91 1017.2
20260506155539 65 235 0.0 0.9 0.00 0.00 0.00 91 1016.6
20260506153715 69 209 0.9 1.7 0.00 0.00 0.00 90 1015.2
20260506153213 69 222 1.7 1.7 0.00 0.00 0.00 91 1015.1
20260506152709 69 185 0.0 0.9 0.00 0.00 0.00 91 1015.2
20260506152207 70 212 0.9 1.7 0.00 0.00 0.00 90 1015.3
20260506151706 71 224 0.9 1.7 0.00 0.00 0.00 89 1014.6
20260506151202 73 292 3.5 6.1 0.00 0.00 0.00 87 1014.6
20260506150658 78 342 2.6 2.6 0.00 0.00 0.00 87 1014.9
20260506150155 78 215 0.0 0.0 0.00 0.00 0.00 89 1014.2
20260506145652 78 215 0.9 0.9 0.00 0.00 0.00 89 1014.2
20260506145149 78 215 0.0 0.0 0.00 0.00 0.00 90 1014.1
20260506144647 78 215 0.0 0.0 0.00 0.00 0.00 90 1013.7
20260506144143 78 214 0.0 0.0 0.00 0.00 0.00 91 1013.7
20260506143641 77 209 1.7 2.6 0.00 0.00 0.00 91 1013.3
20260506143139 77 207 2.6 2.6 0.00 0.00 0.00 91 1013.4
20260506142637 77 197 0.9 1.7 0.00 0.00 0.00 91 1013.2
20260506142135 78 225 0.9 1.7 0.00 0.00 0.00 90 1013.2
20260506141632 77 231 1.7 2.6 0.00 0.00 0.00 91 1012.8
20260506141130 78 218 2.6 4.3 0.00 0.00 0.00 90 1012.7
20260506140628 78 179 2.6 4.3 0.00 0.00 0.00 91 1013.0
20260506140125 77 181 2.6 2.6 0.00 0.00 0.00 93 1013.2
20260506135622 76 186 2.6 2.6 0.00 0.00 0.00 93 1013.0
20260506135118 76 217 1.7 2.6 0.00 0.00 0.00 93 1013.5
20260506134614 76 200 2.6 2.6 0.00 0.00 0.00 94 1013.2
20260506134110 76 199 0.9 0.9 0.00 0.00 0.00 94 1012.8
20260506133608 76 206 0.9 0.9 0.00 0.00 0.00 94 1012.9
20260506133104 76 206 1.7 1.7 0.00 0.00 0.00 94 1012.8
20260506132602 76 199 0.9 0.9 0.00 0.00 0.00 95 1012.7
20260506132059 76 199 0.9 1.7 0.00 0.00 0.00 94 1012.8
20260506131556 76 199 0.9 1.7 0.00 0.00 0.00 95 1012.9
20260506131052 76 184 2.6 2.6 0.00 0.00 0.00 95 1012.6
20260506130549 75 181 2.6 2.6 0.00 0.00 0.00 95 1012.3
20260506130047 75 183 1.7 1.7 0.00 0.00 0.00 95 1012.4
20260506125545 75 168 0.9 1.7 0.00 0.00 0.00 96 1012.8
20260506125042 75 169 1.7 2.6 0.00 0.00 0.00 96 1012.3
20260506124540 75 199 0.9 0.9 0.00 0.00 0.00 96 1012.1
20260506124038 75 201 0.9 0.9 0.00 0.00 0.00 96 1012.0
20260506123535 75 201 0.9 0.9 0.00 0.00 0.00 96 1012.3
20260506123033 75 194 2.6 2.6 0.00 0.00 0.00 97 1012.3
20260506122529 75 225 0.9 0.9 0.00 0.00 0.00 97 1012.1
20260506122028 75 227 0.0 0.9 0.00 0.00 0.00 97 1012.1
20260506121525 74 227 0.0 0.0 0.00 0.00 0.00 97 1012.3
20260506121021 74 228 0.0 0.0 0.00 0.00 0.00 97 1012.3
20260506120519 74 227 0.0 0.0 0.00 0.00 0.00 97 1012.3
20260506120017 74 227 0.0 0.0 0.00 0.00 0.00 96 1012.2
20260506115514 74 227 0.0 0.0 0.00 0.00 0.00 96 1012.2
20260506115013 75 227 0.0 0.0 0.00 0.00 0.00 96 1011.9
20260506114509 75 227 0.0 0.0 0.00 0.00 0.00 96 1011.7
20260506114008 75 227 0.0 0.9 0.00 0.00 0.00 96 1011.9
20260506113505 75 228 0.0 0.0 0.00 0.00 0.00 96 1011.8
20260506113002 75 228 0.0 0.0 0.00 0.00 0.00 96 1012.3
20260506112459 75 228 0.0 0.0 0.00 0.00 0.00 96 1012.4
20260506111956 75 228 0.0 0.0 0.00 0.00 0.00 95 1012.2
20260506111454 75 228 0.0 0.0 0.00 0.00 0.00 95 1012.3
20260506110951 75 228 0.0 0.0 0.00 0.00 0.00 95 1012.2
20260506110449 75 228 0.0 0.0 0.00 0.00 0.00 95 1011.9
20260506105945 75 228 0.0 0.0 0.00 0.00 0.00 95 1012.0
20260506105442 75 228 0.0 0.0 0.00 0.00 0.00 95 1012.0
20260506104939 75 228 0.0 0.0 0.00 0.00 0.00 95 1012.1
20260506104437 75 228 0.0 0.0 0.00 0.00 0.00 94 1012.2
20260506103935 75 228 0.0 0.0 0.00 0.00 0.00 94 1011.9
20260506103432 75 227 0.0 0.0 0.00 0.00 0.00 94 1011.8
20260506102929 75 227 0.0 0.0 0.00 0.00 0.00 94 1011.9
20260506102427 75 207 0.0 0.0 0.00 0.00 0.00 94 1011.6
20260506101924 75 207 0.0 0.0 0.00 0.00 0.00 94 1011.8
20260506101420 75 207 0.0 0.0 0.00 0.00 0.00 94 1011.9
20260506100918 76 220 0.0 0.0 0.00 0.00 0.00 93 1011.6
20260506100416 76 219 0.0 0.0 0.00 0.00 0.00 93 1011.8
20260506095914 76 242 0.0 0.0 0.00 0.00 0.00 93 1011.5
20260506095412 76 207 0.0 0.0 0.00 0.00 0.00 93 1011.5
20260506094908 76 207 2.6 2.6 0.00 0.00 0.00 93 1011.7
20260506094407 76 206 0.0 0.0 0.00 0.00 0.00 93 1011.5
20260506093904 76 205 0.9 0.9 0.00 0.00 0.00 93 1011.4
20260506093401 76 206 0.0 0.9 0.00 0.00 0.00 93 1011.2
20260506092859 76 228 0.0 0.9 0.00 0.00 0.00 93 1011.1
20260506092357 76 216 0.9 0.9 0.00 0.00 0.00 93 1011.1
20260506091853 76 217 0.0 0.0 0.00 0.00 0.00 94 1011.3
20260506091351 76 212 0.0 0.0 0.00 0.00 0.00 94 1011.1
20260506090848 76 210 0.9 0.9 0.00 0.00 0.00 94 1011.1
20260506090346 76 214 0.9 1.7 0.00 0.00 0.00 94 1011.0
20260506085842 76 185 0.9 1.7 0.00 0.00 0.00 93 1011.1
20260506085338 76 187 2.6 2.6 0.00 0.00 0.00 93 1010.7
20260506084835 76 204 0.9 0.9 0.00 0.00 0.00 93 1010.9
20260506084332 76 184 2.6 2.6 0.00 0.00 0.00 93 1011.0
20260506083828 76 187 0.0 0.0 0.00 0.00 0.00 93 1010.9
20260506083326 76 207 1.7 2.6 0.00 0.00 0.00 93 1011.0
20260506082823 76 198 1.7 2.6 0.00 0.00 0.00 93 1011.0
20260506082320 76 195 0.9 1.7 0.00 0.00 0.00 93 1011.0
20260506081816 76 220 0.9 0.9 0.00 0.00 0.00 93 1011.0
20260506081314 76 222 0.0 0.0 0.00 0.00 0.00 93 1011.0
20260506080812 76 187 0.9 1.7 0.00 0.00 0.00 92 1010.9
20260506080308 76 225 0.9 1.7 0.00 0.00 0.00 92 1011.0
20260506073252 76 170 3.5 4.3 0.00 0.00 0.00 91 1011.3
20260506072749 76 215 1.7 1.7 0.00 0.00 0.00 91 1011.1
20260506072246 76 139 5.2 7.8 0.00 0.00 0.00 91 1011.2
20260506071744 76 174 3.5 4.3 0.00 0.00 0.00 91 1011.3
20260506071242 76 143 0.9 1.7 0.00 0.00 0.00 91 1011.6
20260506070738 76 230 2.6 4.3 0.00 0.00 0.00 91 1011.4
20260506070235 76 230 2.6 4.3 0.00 0.00 0.00 91 1011.1
20260506062212 76 215 1.7 1.7 0.00 0.00 0.00 92 1011.4
20260506061708 76 187 2.6 2.6 0.00 0.00 0.00 92 1011.4
20260506061206 76 210 3.5 4.3 0.00 0.00 0.00 92 1011.4
20260506060704 76 203 1.7 2.6 0.00 0.00 0.00 92 1011.2
20260506060201 76 161 7.0 7.8 0.00 0.00 0.00 92 1011.3
20260506051133 76 190 2.6 5.2 0.00 0.00 0.00 92 1011.2
20260506050631 76 177 2.6 2.6 0.00 0.00 0.00 93 1011.4
20260506050128 76 187 1.7 2.6 0.00 0.00 0.00 92 1011.3
20260506045121 76 201 1.7 1.7 0.00 0.00 0.00 92 1011.4
20260506044619 76 185 2.6 2.6 0.00 0.00 0.00 92 1011.4
20260506044116 77 176 3.5 5.2 0.00 0.00 0.00 92 1011.2
20260506043613 77 156 1.7 2.6 0.00 0.00 0.00 92 1011.2
20260506043111 77 199 1.7 1.7 0.00 0.00 0.00 92 1011.2
20260506042610 77 223 0.9 0.9 0.00 0.00 0.00 92 1011.3
20260506042107 77 123 2.6 4.3 0.00 0.00 0.00 92 1011.3
20260506041606 77 144 4.3 7.0 0.00 0.00 0.00 92 1011.2
20260506041102 77 157 0.0 0.9 0.00 0.00 0.00 91 1011.2
20260506040600 77 131 2.6 4.3 0.00 0.00 0.00 91 1011.1
20260506040056 77 189 3.5 5.2 0.00 0.00 0.00 91 1011.0
20260506035553 77 156 3.5 5.2 0.00 0.00 0.00 91 1011.0
20260506035050 77 219 2.6 2.6 0.00 0.00 0.00 91 1011.2
20260506034547 77 207 0.9 1.7 0.00 0.00 0.00 91 1010.9
20260506034044 77 176 2.6 2.6 0.00 0.00 0.00 90 1010.6
20260506033541 77 187 1.7 2.6 0.00 0.00 0.00 90 1010.8
20260506033038 77 175 2.6 2.6 0.00 0.00 0.00 90 1010.9
20260506032536 77 212 0.9 0.9 0.00 0.00 0.00 89 1010.8
20260506032032 78 137 0.9 1.7 0.00 0.00 0.00 88 1010.7
20260506031530 78 210 0.9 1.7 0.00 0.00 0.00 88 1010.3
20260506031027 78 136 0.9 0.9 0.00 0.00 0.00 88 1010.6
20260506030525 78 218 0.0 0.0 0.00 0.00 0.00 87 1010.4
20260506030022 78 195 0.9 1.7 0.00 0.00 0.00 87 1010.4
20260506025519 78 196 0.9 0.9 0.00 0.00 0.00 87 1010.4
20260506025015 78 205 0.9 1.7 0.00 0.00 0.00 87 1010.2
20260506024512 78 203 1.7 1.7 0.00 0.00 0.00 87 1010.1
20260506024008 78 196 0.0 0.0 0.00 0.00 0.00 86 1010.0
20260506023504 78 212 1.7 1.7 0.00 0.00 0.00 86 1010.2
20260506023002 78 168 1.7 1.7 0.00 0.00 0.00 86 1010.0
20260506022459 78 224 0.0 0.0 0.00 0.00 0.00 86 1009.9
20260506021957 79 205 1.7 1.7 0.00 0.00 0.00 85 1009.6
20260506021454 79 208 0.9 0.9 0.00 0.00 0.00 85 1009.6
20260506020951 79 212 0.9 0.9 0.00 0.00 0.00 85 1009.7
20260506020449 79 170 4.3 6.1 0.00 0.00 0.00 84 1009.4
20260506015946 79 219 0.9 1.7 0.00 0.00 0.00 84 1009.4
20260506015443 80 203 1.7 2.6 0.00 0.00 0.00 83 1009.2
20260506014940 80 207 1.7 1.7 0.00 0.00 0.00 83 1009.1
20260506014437 80 158 2.6 2.6 0.00 0.00 0.00 83 1009.2
20260506013933 80 187 0.9 1.7 0.00 0.00 0.00 82 1009.0
20260506013432 80 218 0.9 1.7 0.00 0.00 0.00 82 1008.8
20260506012927 80 192 1.7 1.7 0.00 0.00 0.00 82 1009.2
20260506012424 80 195 0.9 1.7 0.00 0.00 0.00 82 1009.1
20260506011921 81 163 0.9 1.7 0.00 0.00 0.00 81 1009.2
20260506011418 81 189 2.6 4.3 0.00 0.00 0.00 80 1009.0
20260506010915 81 205 0.9 1.7 0.00 0.00 0.00 80 1009.1
20260506010414 81 228 1.7 1.7 0.00 0.00 0.00 79 1009.1